Date String (YYYY-MM-DD hh:mm:ss) UTC,Instrument flags,absolute air pressure of the measurement (hPa),sample flow rate (lpm),inlet stack bypass flow (lpm),air temperature of the measurement (°C),ambient temperature measured by the external sensor (°C),aerosol sample conditioner tube jacket temperature (°C),OPC LED temperature (°C),internal box temperature (°C),relative humidity of the measurement (%),span deviation,mass concentration of particles derived from Lorenz-Mie calculation of OPC scattering (μg/m³),mass concentration of particles derived from Lorenz-Mie calculation of OPC scattering (μg/m³),mass concentration of particles derived from Lorenz-Mie calculation of OPC scattering (μg/m³)
DateTimeUTC,F1_M11,P_M11,Q1_M11,Q2_M11,T1_M11,T2_M11,T3_M11,T4_M11,T5_M11,U1_M11,ZSPAN_M11,X2_M11,X0_M11,X1_M11
2023-12-20 15:00:00,SystemResetWarning,0829.2,4.99,000.00,023.3,022.3,000.0,031.6,024.7,12.8,0000.0,0001.37,0003.59,0000.96
2023-12-20 15:01:00,SystemResetWarning,0829.2,4.99,000.00,023.3,022.3,000.0,031.6,024.7,12.7,0000.0,0001.33,0003.42,0000.95
2023-12-20 15:02:00,SystemResetWarning,0829.2,5.01,000.00,023.3,022.3,000.0,031.6,024.7,12.7,0000.0,0001.35,0003.45,0000.96
2023-12-20 15:03:00,SystemResetWarning,0829.2,5.01,000.00,023.3,022.3,000.0,031.6,024.7,13.4,0000.0,0001.34,0003.66,0000.95
2023-12-20 15:04:00,SystemResetWarning,0829.2,5.00,000.00,023.3,022.3,000.0,031.6,024.7,13.5,0000.0,0001.30,0003.68,0000.94
2023-12-20 15:05:00,SystemResetWarning,0829.3,5.00,000.00,023.3,022.3,000.0,031.6,024.7,13.3,0000.0,0001.26,0003.80,0000.94
2023-12-20 15:06:00,SystemResetWarning,0829.3,5.00,000.00,023.3,022.3,000.0,031.6,024.7,13.4,0000.0,0001.24,0004.23,0000.94
2023-12-20 15:07:00,SystemResetWarning,0829.2,5.00,000.00,023.3,022.3,000.0,031.6,024.7,13.2,0000.0,0001.23,0003.96,0000.93
2023-12-20 15:08:00,SystemResetWarning,0829.2,5.00,000.00,023.3,022.3,000.0,031.6,024.7,13.0,0000.0,0001.26,0003.52,0000.93
2023-12-20 15:09:00,SystemResetWarning,0829.3,5.00,000.00,023.3,022.3,000.0,031.6,024.7,13.0,0000.0,0001.28,0003.61,0000.94
2023-12-20 15:10:00,SystemResetWarning,0829.2,5.00,000.00,023.3,022.3,000.0,031.6,024.7,13.2,0000.0,0001.29,0004.06,0000.95
2023-12-20 15:11:00,SystemResetWarning,0829.3,5.00,000.00,023.3,022.3,000.0,031.6,024.7,13.4,0000.0,0001.25,0003.87,0000.94
2023-12-20 15:12:00,SystemResetWarning,0829.3,5.00,000.00,023.3,022.3,000.0,031.6,024.7,13.5,0000.0,0001.27,0003.98,0000.94
2023-12-20 15:13:00,SystemResetWarning,0829.3,5.00,000.00,023.3,022.3,000.0,031.6,024.7,13.6,0000.0,0001.27,0003.95,0000.95
2023-12-20 15:14:00,SystemResetWarning,0829.3,5.01,000.00,023.3,022.3,000.0,031.6,024.7,13.5,0000.0,0001.25,0003.76,0000.95
2023-12-20 15:15:00,SystemResetWarning,0829.3,5.00,000.00,023.3,022.3,000.0,031.6,024.7,13.5,0000.0,0001.23,0003.63,0000.95
2023-12-20 15:16:00,SystemResetWarning,0829.3,5.01,000.00,023.3,022.3,000.0,031.6,024.7,13.3,0000.0,0001.22,0003.49,0000.95
2023-12-20 15:17:00,SystemResetWarning,0829.4,5.00,000.00,023.3,022.3,000.0,031.6,024.7,13.3,0000.0,0001.25,0003.11,0000.96
2023-12-20 15:18:00,SystemResetWarning,0829.4,4.99,000.00,023.3,022.3,000.0,031.6,024.7,13.3,0000.0,0001.25,0003.12,0000.97
2023-12-20 15:19:00,SystemResetWarning,0829.4,5.00,000.00,023.3,022.3,000.0,031.6,024.7,13.3,0000.0,0001.28,0003.17,0000.97
2023-12-20 15:20:00,SystemResetWarning,0829.4,5.00,000.00,023.3,022.3,000.0,031.6,024.8,13.1,0000.0,0001.28,0003.12,0000.98
2023-12-20 15:21:00,SystemResetWarning,0829.4,5.01,000.00,023.3,022.4,000.0,031.6,024.8,13.3,0000.0,0001.25,0002.40,0000.97
2023-12-20 15:22:00,SystemResetWarning,0829.4,5.00,000.00,023.3,022.4,000.0,031.6,024.8,13.4,0000.0,0001.24,0002.94,0000.97
2023-12-20 15:23:00,SystemResetWarning,0829.3,5.00,000.00,023.3,022.4,000.0,031.6,024.7,13.6,0000.0,0001.23,0002.86,0000.97
2023-12-20 15:24:00,SystemResetWarning,0829.4,5.00,000.00,023.3,022.4,000.0,031.6,024.8,13.8,0000.0,0001.21,0002.83,0000.96
2023-12-20 15:25:00,SystemResetWarning,0829.4,4.99,000.00,023.3,022.4,000.0,031.6,024.8,13.8,0000.0,0001.20,0002.77,0000.95
2023-12-20 15:26:00,SystemResetWarning,0829.3,5.00,000.00,023.3,022.4,000.0,031.6,024.7,13.7,0000.0,0001.21,0002.74,0000.96
2023-12-20 15:27:00,SystemResetWarning,0829.4,5.01,000.00,023.3,022.4,000.0,031.6,024.7,13.8,0000.0,0001.21,0002.80,0000.96
2023-12-20 15:28:00,SystemResetWarning,0829.3,5.00,000.00,023.3,022.4,000.0,031.6,024.7,13.9,0000.0,0001.19,0003.30,0000.96
2023-12-20 15:29:00,SystemResetWarning,0829.3,5.00,000.00,023.3,022.4,000.0,031.6,024.7,14.3,0000.0,0001.21,0003.55,0000.96
2023-12-20 15:30:00,SystemResetWarning,0829.3,4.99,000.00,023.3,022.4,000.0,031.6,024.7,14.9,0000.0,0001.19,0003.72,0000.97
2023-12-20 15:31:00,SystemResetWarning,0829.3,4.99,000.00,023.3,022.4,000.0,031.6,024.7,15.0,0000.0,0001.16,0003.68,0000.96
2023-12-20 15:32:00,SystemResetWarning,0829.3,5.00,000.00,023.3,022.4,000.0,031.6,024.7,14.8,0000.0,0001.17,0003.73,0000.97
2023-12-20 15:33:00,SystemResetWarning,0829.3,5.00,000.00,023.3,022.4,000.0,031.6,024.8,14.6,0000.0,0001.21,0003.19,0000.98
2023-12-20 15:34:00,SystemResetWarning,0829.3,5.00,000.00,023.3,022.4,000.0,031.6,024.7,14.8,0000.0,0001.20,0003.02,0001.00
2023-12-20 15:35:00,SystemResetWarning,0829.3,5.00,000.00,023.3,022.4,000.0,031.6,024.7,14.6,0000.0,0001.26,0003.15,0001.01
2023-12-20 15:36:00,SystemResetWarning,0829.4,5.00,000.00,023.3,022.4,000.0,031.6,024.8,14.4,0000.0,0001.34,0003.65,0001.04
2023-12-20 15:37:00,SystemResetWarning,0829.4,5.00,000.00,023.3,022.4,000.0,031.6,024.8,14.8,0000.0,0001.40,0004.32,0001.06
2023-12-20 15:38:00,SystemResetWarning,0829.4,5.00,000.00,023.3,022.5,000.0,031.6,024.8,15.0,0000.0,0001.43,0004.33,0001.08
2023-12-20 15:39:00,SystemResetWarning,0829.4,5.00,000.00,023.3,022.5,000.0,031.6,024.8,15.2,0000.0,0001.49,0003.83,0001.11
2023-12-20 15:40:00,SystemResetWarning,0829.4,5.00,000.00,023.4,022.5,000.0,031.6,024.8,14.6,0000.0,0001.52,0003.67,0001.13
2023-12-20 15:41:00,SystemResetWarning,0829.4,5.00,000.00,023.4,022.5,000.0,031.6,024.8,14.9,0000.0,0001.52,0003.44,0001.13
2023-12-20 15:42:00,SystemResetWarning,0829.4,5.00,000.00,023.4,022.5,000.0,031.7,024.8,14.8,0000.0,0001.55,0003.51,0001.14
2023-12-20 15:43:00,SystemResetWarning,0829.4,5.00,000.00,023.4,022.5,000.0,031.7,024.8,15.0,0000.0,0001.57,0003.50,0001.16
2023-12-20 15:44:00,SystemResetWarning,0829.4,5.00,000.00,023.4,022.5,000.0,031.7,024.9,15.2,0000.0,0001.57,0003.73,0001.17
2023-12-20 15:45:00,SystemResetWarning,0829.5,5.00,000.00,023.4,022.6,000.0,031.7,024.9,15.5,0000.0,0001.62,0005.89,0001.17
2023-12-20 15:46:00,SystemResetWarning,0829.4,5.00,000.00,023.4,022.6,000.0,031.7,024.9,14.4,0000.0,0001.62,0006.32,0001.18
2023-12-20 15:47:00,SystemResetWarning,0829.5,4.99,000.00,023.4,022.6,000.0,031.7,024.9,13.3,0000.0,0001.58,0006.44,0001.16
2023-12-20 15:48:00,SystemResetWarning,0829.5,4.99,000.00,023.4,022.6,000.0,031.7,024.9,13.1,0000.0,0001.57,0005.91,0001.14
2023-12-20 15:49:00,SystemResetWarning,0829.6,5.00,000.00,023.4,022.6,000.0,031.7,024.9,13.1,0000.0,0001.55,0005.87,0001.12
2023-12-20 15:50:00,SystemResetWarning,0829.6,5.00,000.00,023.4,022.6,000.0,031.7,024.9,13.2,0000.0,0001.53,0005.80,0001.11
2023-12-20 15:51:00,SystemResetWarning,0829.6,5.00,000.00,023.4,022.6,000.0,031.7,024.9,13.9,0000.0,0001.52,0005.76,0001.09
2023-12-20 15:52:00,SystemResetWarning,0829.6,5.00,000.00,023.5,022.6,000.0,031.7,024.9,14.0,0000.0,0001.55,0005.80,0001.09
2023-12-20 15:53:00,SystemResetWarning,0829.6,5.00,000.00,023.5,022.6,000.0,031.7,024.9,14.0,0000.0,0001.53,0005.69,0001.09
2023-12-20 15:54:00,SystemResetWarning,0829.6,5.00,000.00,023.5,022.6,000.0,031.7,024.9,13.8,0000.0,0001.51,0005.66,0001.07
2023-12-20 15:55:00,SystemResetWarning,0829.6,4.99,000.00,023.5,022.6,000.0,031.7,024.9,13.8,0000.0,0001.47,0005.28,0001.05
2023-12-20 15:56:00,SystemResetWarning,0829.6,4.99,000.00,023.5,022.7,000.0,031.7,024.9,13.8,0000.0,0001.42,0003.07,0001.03
2023-12-20 15:57:00,SystemResetWarning,0829.5,5.00,000.00,023.5,022.7,000.0,031.7,024.9,13.8,0000.0,0001.44,0002.82,0001.02
2023-12-20 15:58:00,SystemResetWarning,0829.5,5.01,000.00,023.5,022.7,000.0,031.7,025.0,13.8,0000.0,0001.49,0002.74,0001.04
2023-12-20 15:59:00,SystemResetWarning,0829.5,5.01,000.00,023.5,022.7,000.0,031.8,025.0,13.7,0000.0,0001.49,0002.57,0001.04
